User: anonymous   Login
Location: Forst
(46.9333°N, 15.4333°E)
Time: 20:45:27
(UTC+00:00)
Language:

STARLINK-1603 - Orbit

View from above orbital plane
View from above orbital plane
View from above satellite
View from above satellite

Ground track
Ground track

The orbit data is extracted from the following two-line orbital elements,

1 46162C 20057AX  21175.33212073  .00005453  00000-0  36528-3 0  1750
2 46162  53.0553  95.1238 0001828  68.8739 165.6819 15.06399323    18
Epoch (UTC): 24 June 2021 07:58:15
Eccentricity: 0.0001828
inclination: 53.0553°
perigee height: 546 km
apogee height: 548 km
right ascension of ascending node: 95.1238°
argument of perigee: 68.8739°
revolutions per day: 15.06399323
mean anomaly at epoch: 165.6819°
orbit number at epoch: 1

The dashed part of the orbit path shows where the satellite is in the earth's shadow,  

DLR